DW8847 Weather Reports


Display with metric or nautical units.
time (UTC)temp
F
wind
direction
speed
MPH
gust
MPH
rain 1hr
in
rain 24hr
in
rain mn
in
humidity
%
barometer
mb
20260510194505 61 221 0.0 0.0 0.00 0.00 0.00 83 1011.2
20260510194008 61 221 0.0 0.0 0.00 0.00 0.00 83 1011.2
20260510193508 61 221 0.0 0.0 0.00 0.00 0.00 83 1011.3
20260510193005 61 221 0.0 0.0 0.00 0.00 0.00 83 1011.2
20260510192506 61 221 0.0 0.0 0.00 0.00 0.00 83 1011.3
20260510192004 61 221 0.0 2.0 0.00 0.00 0.00 83 1011.3
20260510191504 61 221 0.0 2.0 0.00 0.00 0.00 82 1011.3
20260510191004 61 221 0.0 0.0 0.00 0.00 0.00 83 1011.3
20260510190503 61 221 0.0 1.0 0.00 0.00 0.00 83 1011.2
20260510190005 61 221 0.0 2.0 0.00 0.00 0.00 82 1011.2
20260510185504 61 221 0.0 2.0 0.00 0.00 0.00 82 1011.3
20260510185003 61 221 0.0 2.0 0.00 0.00 0.00 82 1011.3
20260510184503 62 221 0.0 2.0 0.00 0.00 0.00 82 1011.3
20260510184003 62 221 0.0 2.0 0.00 0.00 0.00 82 1011.3
20260510183503 62 221 0.0 2.0 0.00 0.00 0.00 82 1011.3
20260510183003 62 221 0.0 2.0 0.00 0.00 0.00 82 1011.3
20260510182503 62 221 0.0 2.0 0.00 0.00 0.00 82 1011.3
20260510182001 62 220 1.0 2.0 0.00 0.00 0.00 82 1011.3
20260510181504 62 220 1.0 4.0 0.00 0.00 0.00 81 1011.3
20260510181001 62 219 0.0 4.0 0.00 0.00 0.00 81 1011.4
20260510180501 62 238 1.0 2.0 0.00 0.00 0.00 81 1011.3
20260510180002 62 243 0.0 3.0 0.00 0.00 0.00 80 1011.3
20260510175501 62 243 1.0 4.0 0.00 0.00 0.00 80 1011.3
20260510175002 62 247 1.0 3.0 0.00 0.00 0.00 80 1011.3
20260510174501 63 211 1.0 4.0 0.00 0.00 0.00 79 1011.3
20260510174001 63 216 1.0 4.0 0.00 0.00 0.00 79 1011.4
20260510173502 63 237 1.0 5.0 0.00 0.00 0.00 79 1011.3
20260510173003 63 236 2.0 5.0 0.00 0.00 0.00 79 1011.3
20260510172603 63 232 2.0 5.0 0.00 0.00 0.00 78 1011.3
20260510172101 63 239 3.0 8.0 0.00 0.00 0.00 78 1011.4
20260510171601 63 238 4.0 7.0 0.00 0.00 0.00 77 1011.4
20260510171100 64 237 2.0 8.0 0.00 0.00 0.00 78 1011.4
20260510170559 64 219 5.0 8.0 0.00 0.00 0.00 78 1011.4
20260510170104 64 239 4.0 7.0 0.00 0.00 0.00 76 1011.4
20260510165559 65 236 2.0 8.0 0.00 0.00 0.00 76 1011.4
20260510165058 65 236 3.0 8.0 0.00 0.00 0.00 74 1011.5
20260510164613 65 213 2.0 6.0 0.00 0.00 0.00 73 1011.4
20260510164059 65 205 2.0 5.0 0.00 0.00 0.00 73 1011.5
20260510163559 65 195 2.0 5.0 0.00 0.00 0.00 71 1011.5
20260510163105 66 238 3.0 5.0 0.00 0.00 0.00 71 1011.5
20260510162602 66 229 1.0 2.0 0.00 0.00 0.00 70 1011.5
20260510162058 66 231 1.0 3.0 0.00 0.00 0.00 69 1011.4
20260510161600 66 247 0.0 4.0 0.00 0.00 0.00 68 1011.4
20260510161057 66 238 2.0 6.0 0.00 0.00 0.00 68 1011.4
20260510160556 66 232 3.0 5.0 0.00 0.00 0.00 69 1011.6
20260510160058 66 210 2.0 4.0 0.00 0.00 0.00 69 1011.7
20260510155557 66 202 2.0 4.0 0.00 0.00 0.00 68 1011.6
20260510155055 66 199 2.0 5.0 0.00 0.00 0.00 68 1011.7
20260510154555 67 204 2.0 5.0 0.00 0.00 0.00 67 1011.7
20260510154055 67 219 1.0 5.0 0.00 0.00 0.00 68 1011.8
20260510153555 67 196 2.0 5.0 0.00 0.00 0.00 66 1011.8
20260510153057 67 208 1.0 5.0 0.00 0.00 0.00 64 1011.8
20260510152556 67 186 3.0 5.0 0.00 0.00 0.00 64 1011.8
20260510152054 67 213 1.0 4.0 0.00 0.00 0.00 64 1011.8
20260510151602 67 198 1.0 3.0 0.00 0.00 0.00 62 1011.8
20260510151053 67 179 1.0 4.0 0.00 0.00 0.00 64 1011.8
20260510150553 68 234 0.0 4.0 0.00 0.00 0.00 65 1011.8
20260510150058 68 159 0.0 4.0 0.00 0.00 0.00 66 1011.8
20260510145553 68 196 0.0 4.0 0.00 0.00 0.00 65 1011.8
20260510145054 68 196 0.0 5.0 0.00 0.00 0.00 64 1011.9
20260510144554 68 205 1.0 5.0 0.00 0.00 0.00 64 1011.9
20260510144052 68 207 0.0 5.0 0.00 0.00 0.00 61 1011.9
20260510143552 68 202 1.0 5.0 0.00 0.00 0.00 60 1011.9
20260510143051 68 205 0.0 3.0 0.00 0.00 0.00 61 1011.9
20260510142551 68 207 0.0 3.0 0.00 0.00 0.00 60 1011.9
20260510142051 68 242 1.0 5.0 0.00 0.00 0.00 58 1012.0
20260510141551 68 200 1.0 6.0 0.00 0.00 0.00 58 1012.0
20260510141051 68 177 2.0 6.0 0.00 0.00 0.00 58 1011.9
20260510140551 68 209 1.0 5.0 0.00 0.00 0.00 56 1011.9
20260510140050 68 207 1.0 5.0 0.00 0.00 0.00 56 1011.9
20260510135549 68 201 1.0 5.0 0.00 0.00 0.00 58 1011.9
20260510135049 68 199 1.0 4.0 0.00 0.00 0.00 59 1011.9
20260510134553 68 194 0.0 4.0 0.00 0.00 0.00 61 1011.9
20260510134049 68 188 0.0 4.0 0.00 0.00 0.00 62 1012.0
20260510133551 68 205 1.0 4.0 0.00 0.00 0.00 63 1012.1
20260510133048 68 159 0.0 4.0 0.00 0.00 0.00 63 1012.1
20260510132547 68 188 0.0 4.0 0.00 0.00 0.00 63 1012.1
20260510132047 68 195 0.0 4.0 0.00 0.00 0.00 65 1012.2
20260510131548 68 236 0.0 2.0 0.00 0.00 0.00 63 1012.2
20260510131047 68 210 0.0 4.0 0.00 0.00 0.00 64 1012.2
20260510130546 69 218 1.0 4.0 0.00 0.00 0.00 65 1012.2
20260510130046 69 165 0.0 4.0 0.00 0.00 0.00 65 1012.3
20260510125547 69 205 1.0 5.0 0.00 0.00 0.00 64 1012.3
20260510125045 69 204 1.0 5.0 0.00 0.00 0.00 63 1012.4
20260510124548 69 214 0.0 5.0 0.00 0.00 0.00 65 1012.4
20260510124044 70 205 2.0 5.0 0.00 0.00 0.00 63 1012.4
20260510123543 70 194 0.0 3.0 0.00 0.00 0.00 65 1012.4
20260510123044 70 202 0.0 2.0 0.00 0.00 0.00 66 1012.5
20260510122544 70 202 0.0 2.0 0.00 0.00 0.00 65 1012.5
20260510122042 70 202 0.0 4.0 0.00 0.00 0.00 65 1012.6
20260510121547 70 210 2.0 4.0 0.00 0.00 0.00 65 1012.6
20260510121041 70 245 0.0 3.0 0.00 0.00 0.00 67 1012.7
20260510120543 70 248 1.0 3.0 0.00 0.00 0.00 64 1012.7
20260510120040 70 179 0.0 2.0 0.00 0.00 0.00 63 1012.7
20260510115540 69 174 0.0 4.0 0.00 0.00 0.00 64 1012.8
20260510115040 69 174 1.0 4.0 0.00 0.00 0.00 63 1012.8
20260510114540 70 199 0.0 2.0 0.00 0.00 0.00 65 1012.8
20260510114043 70 182 0.0 3.0 0.00 0.00 0.00 65 1012.8
20260510113539 70 190 0.0 4.0 0.00 0.00 0.00 64 1012.8
20260510113042 70 201 1.0 4.0 0.00 0.00 0.00 63 1012.8
20260510112540 70 200 1.0 4.0 0.00 0.00 0.00 63 1012.9
20260510112038 70 216 0.0 5.0 0.00 0.00 0.00 63 1012.9
20260510111539 70 154 0.0 5.0 0.00 0.00 0.00 61 1012.9
20260510111037 71 184 1.0 5.0 0.00 0.00 0.00 62 1012.9
20260510110540 70 196 0.0 3.0 0.00 0.00 0.00 63 1013.0
20260510110039 70 171 0.0 3.0 0.00 0.00 0.00 64 1013.0
20260510105536 70 173 0.0 2.0 0.00 0.00 0.00 64 1013.1
20260510105036 70 180 0.0 3.0 0.00 0.00 0.00 63 1013.2
20260510104537 70 179 0.0 2.0 0.00 0.00 0.00 63 1013.2
20260510104039 71 90 0.0 2.0 0.00 0.00 0.00 63 1013.2
20260510103537 71 131 0.0 2.0 0.00 0.00 0.00 63 1013.2
20260510103042 70 142 0.0 2.0 0.00 0.00 0.00 64 1013.2
20260510102537 70 162 0.0 2.0 0.00 0.00 0.00 60 1013.1
20260510102036 70 182 0.0 2.0 0.00 0.00 0.00 64 1013.1
20260510101534 70 63 0.0 2.0 0.00 0.00 0.00 62 1013.1
20260510101034 70 63 0.0 2.0 0.00 0.00 0.00 62 1013.1
20260510100534 70 63 0.0 2.0 0.00 0.00 0.00 62 1013.2
20260510100039 70 63 0.0 2.0 0.00 0.00 0.00 64 1013.2
20260510095534 70 62 0.0 2.0 0.00 0.00 0.00 64 1013.2
20260510095033 70 62 0.0 2.0 0.00 0.00 0.00 62 1013.3
20260510094541 70 65 1.0 2.0 0.00 0.00 0.00 61 1013.4
20260510094036 70 61 0.0 4.0 0.00 0.00 0.00 60 1013.4
20260510093534 70 61 1.0 4.0 0.00 0.00 0.00 60 1013.5
20260510093032 71 62 0.0 2.0 0.00 0.00 0.00 63 1013.5
20260510092531 70 62 0.0 2.0 0.00 0.00 0.00 59 1013.5
20260510092030 71 62 0.0 2.0 0.00 0.00 0.00 62 1013.5
20260510091531 71 62 0.0 2.0 0.00 0.00 0.00 62 1013.5
20260510091029 70 62 0.0 3.0 0.00 0.00 0.00 62 1013.5
20260510090530 70 62 0.0 3.0 0.00 0.00 0.00 62 1013.6
20260510090033 70 70 0.0 2.0 0.00 0.00 0.00 63 1013.5
20260510085526 69 75 0.0 3.0 0.00 0.00 0.00 63 1013.5
20260510085027 69 73 1.0 4.0 0.00 0.00 0.00 64 1013.4
20260510084525 68 66 0.0 4.0 0.00 0.00 0.00 63 1013.4
20260510084024 68 68 1.0 4.0 0.00 0.00 0.00 63 1013.4
20260510083524 68 62 0.0 3.0 0.00 0.00 0.00 64 1013.5
20260510083033 68 62 0.0 3.0 0.00 0.00 0.00 68 1013.6
20260510082521 67 63 0.0 3.0 0.00 0.00 0.00 64 1013.6
20260510082022 67 67 1.0 3.0 0.00 0.00 0.00 65 1013.5
20260510081521 67 52 0.0 3.0 0.00 0.00 0.00 66 1013.6
20260510081020 67 65 0.0 3.0 0.00 0.00 0.00 67 1013.5
20260510080520 67 67 1.0 3.0 0.00 0.00 0.00 66 1013.6
20260510080019 67 67 0.0 3.0 0.00 0.00 0.00 66 1013.6
20260510075522 66 65 1.0 4.0 0.00 0.00 0.00 66 1013.5
20260510075018 66 57 1.0 4.0 0.00 0.00 0.00 66 1013.5
20260510074517 66 71 1.0 4.0 0.00 0.00 0.00 66 1013.6
20260510074016 66 70 1.0 3.0 0.00 0.00 0.00 67 1013.6
20260510073518 66 69 1.0 2.0 0.00 0.00 0.00 67 1013.5
20260510073017 66 71 0.0 4.0 0.00 0.00 0.00 69 1013.5
20260510072514 65 71 1.0 4.0 0.00 0.00 0.00 68 1013.5
20260510072016 65 32 1.0 5.0 0.00 0.00 0.00 69 1013.4
20260510071512 65 70 2.0 5.0 0.00 0.00 0.00 69 1013.4
20260510071011 65 26 1.0 4.0 0.00 0.00 0.00 70 1013.3
20260510070513 65 25 2.0 4.0 0.00 0.00 0.00 70 1013.4
20260510070022 64 32 1.0 5.0 0.00 0.00 0.00 70 1013.3
20260510065510 64 34 2.0 4.0 0.00 0.00 0.00 70 1013.3
20260510065009 64 17 1.0 3.0 0.00 0.00 0.00 74 1013.3
20260510064507 63 22 1.0 3.0 0.00 0.00 0.00 74 1013.4
20260510064006 63 22 1.0 3.0 0.00 0.00 0.00 74 1013.5
20260510063506 63 22 1.0 3.0 0.00 0.00 0.00 74 1013.5
20260510063005 63 30 1.0 3.0 0.00 0.00 0.00 76 1013.5
20260510062504 62 30 1.0 3.0 0.00 0.00 0.00 77 1013.6
20260510062001 62 30 1.0 3.0 0.00 0.00 0.00 77 1013.6
20260510061600 61 42 0.0 2.0 0.00 0.00 0.00 79 1013.7
20260510061059 61 36 1.0 3.0 0.00 0.00 0.00 79 1013.7
20260510060558 60 36 1.0 3.0 0.00 0.00 0.00 79 1013.7
20260510060100 60 37 1.0 2.0 0.00 0.00 0.00 80 1013.7
20260510055555 59 37 1.0 3.0 0.00 0.00 0.00 80 1013.7
20260510055054 59 37 1.0 3.0 0.00 0.00 0.00 80 1013.7
20260510054554 59 37 2.0 3.0 0.00 0.00 0.00 80 1013.7
20260510054053 58 63 0.0 2.0 0.00 0.00 0.00 81 1013.8
20260510053551 58 63 0.0 2.0 0.00 0.00 0.00 81 1013.8
20260510053050 58 63 0.0 2.0 0.00 0.00 0.00 81 1013.9
20260510052550 58 63 0.0 2.0 0.00 0.00 0.00 81 1013.9
20260510052049 57 63 0.0 2.0 0.00 0.00 0.00 81 1013.9
20260510051555 57 65 0.0 2.0 0.00 0.00 0.00 81 1014.0
20260510051048 57 66 0.0 2.0 0.00 0.00 0.00 82 1014.0
20260510050548 57 67 0.0 2.0 0.00 0.00 0.00 82 1013.9
20260510050051 56 67 0.0 2.0 0.00 0.00 0.00 82 1013.9
20260510045547 56 68 1.0 2.0 0.00 0.00 0.00 82 1013.9
20260510045046 56 82 0.0 2.0 0.00 0.00 0.00 83 1014.0
20260510044545 55 83 0.0 2.0 0.00 0.00 0.00 83 1014.0
20260510044044 55 83 0.0 1.0 0.00 0.00 0.00 83 1014.0
20260510043543 55 83 0.0 0.0 0.00 0.00 0.00 83 1014.0
20260510043048 55 83 0.0 0.0 0.00 0.00 0.00 83 1014.0
20260510042540 55 83 0.0 2.0 0.00 0.00 0.00 83 1014.0
20260510042038 54 83 0.0 2.0 0.00 0.00 0.00 83 1014.0
20260510041554 54 83 0.0 2.0 0.00 0.00 0.00 83 1014.0
20260510041038 54 83 0.0 2.0 0.00 0.00 0.00 83 1014.0
20260510040537 54 83 0.0 2.0 0.00 0.00 0.00 83 1014.0
20260510040036 54 83 0.0 2.0 0.00 0.00 0.00 83 1014.0
20260510035535 54 83 0.0 2.0 0.00 0.00 0.00 83 1014.0
20260510035034 54 83 0.0 2.0 0.00 0.00 0.00 84 1014.0
20260510034534 54 83 0.0 2.0 0.00 0.00 0.00 84 1013.9
20260510034034 54 83 0.0 2.0 0.00 0.00 0.00 84 1014.0
20260510033534 54 83 0.0 0.0 0.00 0.00 0.00 84 1014.1
20260510033033 54 83 0.0 0.0 0.00 0.00 0.00 84 1014.2
20260510032531 54 83 0.0 2.0 0.00 0.00 0.00 84 1014.3
20260510032030 54 83 0.0 2.0 0.00 0.00 0.00 84 1014.3
20260510031530 54 83 0.0 1.0 0.00 0.00 0.00 85 1014.3
20260510031029 54 83 0.0 2.0 0.00 0.00 0.00 85 1014.4
20260510030534 53 83 0.0 2.0 0.00 0.00 0.00 85 1014.3
20260510030029 53 83 0.0 2.0 0.00 0.00 0.00 85 1014.4
20260510025528 53 83 0.0 2.0 0.00 0.00 0.00 85 1014.5
20260510025028 53 83 0.0 0.0 0.00 0.00 0.00 85 1014.5
20260510024528 53 83 0.0 0.0 0.00 0.00 0.00 85 1014.5
20260510024027 53 83 0.0 0.0 0.00 0.00 0.00 85 1014.6
20260510023526 53 83 0.0 0.0 0.00 0.00 0.00 85 1014.6
20260510023026 53 83 0.0 0.0 0.00 0.00 0.00 85 1014.6
20260510022526 54 83 0.0 0.0 0.00 0.00 0.00 85 1014.7
20260510022025 54 83 0.0 0.0 0.00 0.00 0.00 85 1014.7
20260510021524 54 83 0.0 0.0 0.00 0.00 0.00 85 1014.6
20260510021024 54 83 0.0 2.0 0.00 0.00 0.00 85 1014.6
20260510020525 54 83 0.0 2.0 0.00 0.00 0.00 85 1014.6
20260510020025 54 83 0.0 2.0 0.00 0.00 0.00 85 1014.6
20260510015523 54 83 0.0 2.0 0.00 0.00 0.00 85 1014.6
20260510015023 54 83 0.0 2.0 0.00 0.00 0.00 85 1014.6
20260510014524 54 83 0.0 2.0 0.00 0.00 0.00 85 1014.6
20260510014022 54 83 0.0 0.0 0.00 0.00 0.00 84 1014.7
20260510013521 55 83 0.0 2.0 0.00 0.00 0.00 84 1014.8
20260510013020 55 83 0.0 2.0 0.00 0.00 0.00 84 1014.8
20260510012519 55 83 0.0 2.0 0.00 0.00 0.00 84 1014.8
20260510012018 55 83 0.0 2.0 0.00 0.00 0.00 84 1014.8
20260510011531 55 83 0.0 2.0 0.00 0.00 0.00 84 1014.8
20260510011018 56 83 0.0 0.0 0.00 0.00 0.00 84 1014.8
20260510010518 56 83 0.0 0.0 0.00 0.00 0.00 84 1014.9
20260510010019 56 83 0.0 0.0 0.00 0.00 0.00 84 1014.9
20260510005518 56 83 0.0 0.0 0.00 0.00 0.00 84 1014.9
20260510005117 56 83 0.0 0.0 0.00 0.00 0.00 83 1014.9
20260510004517 56 83 0.0 2.0 0.00 0.00 0.00 83 1015.0
20260510004020 56 83 0.0 2.0 0.00 0.00 0.00 83 1015.0
20260510003517 56 83 0.0 2.0 0.00 0.00 0.00 84 1014.9
20260510003017 56 83 0.0 0.0 0.00 0.00 0.00 84 1015.0
20260510002516 56 83 0.0 0.0 0.00 0.00 0.00 83 1015.0
20260510002017 56 83 0.0 0.0 0.00 0.00 0.00 83 1015.0
20260510001516 56 83 0.0 0.0 0.00 0.00 0.00 83 1015.0
20260510001015 56 83 0.0 0.0 0.00 0.00 0.00 83 1015.1
20260510000515 56 83 0.0 0.0 0.00 0.00 0.00 83 1015.1
20260510000015 57 83 0.0 0.0 0.00 0.00 0.00 83 1015.2
20260509235514 57 83 0.0 0.0 0.00 0.00 0.00 83 1015.1
20260509235014 57 83 0.0 0.0 0.00 0.00 0.00 83 1015.1
20260509234514 57 83 0.0 0.0 0.00 0.00 0.00 83 1015.1
20260509234016 56 83 0.0 0.0 0.00 0.00 0.00 84 1015.1
20260509233515 56 83 0.0 0.0 0.00 0.00 0.00 85 1015.1
20260509233014 56 83 0.0 0.0 0.00 0.00 0.00 85 1015.1
20260509232513 56 83 0.0 0.0 0.00 0.00 0.00 85 1015.1
20260509232013 56 83 0.0 0.0 0.00 0.00 0.00 86 1015.1
20260509231515 55 83 0.0 0.0 0.00 0.00 0.00 84 1015.1
20260509231012 55 83 0.0 0.0 0.00 0.00 0.00 84 1015.2
20260509230511 55 83 0.0 1.0 0.00 0.00 0.00 84 1015.2
20260509230010 56 83 0.0 1.0 0.00 0.00 0.00 84 1015.2
20260509225510 56 83 0.0 0.0 0.00 0.00 0.00 84 1015.3
20260509225009 56 83 0.0 2.0 0.00 0.00 0.00 84 1015.3
20260509224511 56 83 0.0 2.0 0.00 0.00 0.00 84 1015.3
20260509224009 56 83 0.0 0.0 0.00 0.00 0.00 84 1015.3
20260509223509 56 83 0.0 1.0 0.00 0.00 0.00 84 1015.2
20260509223007 56 83 0.0 1.0 0.00 0.00 0.00 83 1015.3
20260509222506 57 83 0.0 0.0 0.00 0.00 0.00 82 1015.2
20260509222003 57 83 0.0 0.0 0.00 0.00 0.00 82 1015.3
20260509221508 57 83 0.0 0.0 0.00 0.00 0.00 82 1015.3
20260509221002 57 83 0.0 0.0 0.00 0.00 0.00 82 1015.2
20260509220559 57 83 0.0 0.0 0.00 0.00 0.00 82 1015.2
20260509220107 57 83 0.0 0.0 0.00 0.00 0.00 82 1015.2
20260509215558 57 83 0.0 0.0 0.00 0.00 0.00 81 1015.2
20260509215058 58 83 0.0 2.0 0.00 0.00 0.00 81 1015.2
20260509214558 58 83 0.0 1.0 0.00 0.00 0.00 81 1015.2
20260509214057 58 83 0.0 0.0 0.00 0.00 0.00 81 1015.2
20260509213557 58 83 0.0 0.0 0.00 0.00 0.00 81 1015.1
20260509213058 58 83 0.0 0.0 0.00 0.00 0.00 80 1015.2
20260509212558 59 83 0.0 0.0 0.00 0.00 0.00 81 1015.2
20260509212059 59 83 0.0 0.0 0.00 0.00 0.00 79 1015.1
20260509211556 59 83 0.0 1.0 0.00 0.00 0.00 79 1015.1
20260509211057 59 83 0.0 1.0 0.00 0.00 0.00 78 1015.0
20260509210557 59 83 0.0 0.0 0.00 0.00 0.00 76 1015.0
20260509210100 59 83 0.0 0.0 0.00 0.00 0.00 77 1015.0
20260509205556 59 83 0.0 0.0 0.00 0.00 0.00 77 1015.0
20260509205057 59 83 0.0 0.0 0.00 0.00 0.00 78 1015.0
20260509204601 60 83 0.0 0.0 0.00 0.00 0.00 79 1015.0
20260509204056 60 83 0.0 2.0 0.00 0.00 0.00 78 1015.0
20260509203555 61 83 0.0 2.0 0.00 0.00 0.00 75 1015.0
20260509203058 61 244 0.0 0.0 0.00 0.00 0.00 76 1014.9
20260509202557 61 244 0.0 0.0 0.00 0.00 0.00 76 1014.8
20260509202058 61 244 0.0 0.0 0.00 0.00 0.00 74 1014.8
20260509201555 61 244 0.0 0.0 0.00 0.00 0.00 75 1014.8
20260509201055 61 244 0.0 0.0 0.00 0.00 0.00 76 1014.8
20260509200555 61 244 0.0 0.0 0.00 0.00 0.00 74 1014.7
20260509195557 62 244 0.0 2.0 0.00 0.00 0.00 75 1014.7
20260509195056 62 244 0.0 2.0 0.00 0.00 0.00 75 1014.7